Simultaneous Nadir Overpasses (SNOs) Predictions

Prediction of SNOs between GOES-17 and METOP-B Satellite Orbit:

Table of predicted SNOs for the next 14.0 days since TLE Epoch: 8/13/2022
Index Date Time (GOES-17) GOES-17 Lat,Lon METOP-B Lat,Lon Distance(km) Time Diff (sec)
1 08/13/2022 06:40:23 0.03,-137.31 0.04,-137.28 3.50 80
2 08/15/2022 18:38:34 -0.03,-137.32 -0.11,-136.84 53.96 80
3 08/17/2022 06:54:54 0.03,-137.32 -0.86,-141.45 469.80 80
4 08/18/2022 06:36:54 0.03,-137.32 0.22,-136.44 99.44 80
5 08/19/2022 18:53:05 -0.03,-137.31 0.78,-141.01 420.58 80
6 08/20/2022 18:35:05 -0.03,-137.31 -0.31,-136.00 148.28 80
7 08/22/2022 06:51:24 0.03,-137.29 -0.71,-140.60 376.61 80
8 08/23/2022 06:33:25 0.03,-137.28 0.43,-135.61 191.72 80
9 08/24/2022 18:49:35 -0.03,-137.27 0.63,-140.16 329.67 80
10 08/25/2022 18:31:35 -0.03,-137.26 -0.52,-135.17 238.41 80
